When you browse on this site, cookies collect data to enhance your experience and personalize the content and advertising you see.
Visit our Privacy Policy to learn more. By continuing to use the site, you agree to this use of cookies and data.
  • en France
  • Liste des pays
  • À 7 jours
  • Température de l'eau
  • Carte météo
  • Widgets météo
  • user-avatar
    Se connecter

    Météo par heure à Toulouse

    Ce jour, 16 Novembre, Samedi

    Heure Température Précipitation Vent Pression Humidité
    00:00 +3°C° 0 mm 3 m/s 742 mmHg 87%
    01:00 +3°C° 0 mm 3 m/s 742 mmHg 87%
    02:00 +2°C° 0 mm 3 m/s 742 mmHg 87%
    03:00 +3°C° 0 mm 2 m/s 742 mmHg 87%
    04:00 +3°C° 0.1 mm 2 m/s 743 mmHg 86%
    05:00 +4°C° 0.1 mm 2 m/s 743 mmHg 84%
    06:00 +4°C° 0 mm 2 m/s 744 mmHg 78%
    07:00 +3°C° 0 mm 3 m/s 744 mmHg 76%
    08:00 +4°C° 0 mm 3 m/s 744 mmHg 74%
    09:00 +5°C° 0 mm 3 m/s 744 mmHg 72%
    10:00 +7°C° 0 mm 3 m/s 744 mmHg 68%
    11:00 +9°C° 0 mm 3 m/s 744 mmHg 64%
    12:00 +10°C° 0 mm 3 m/s 743 mmHg 61%
    13:00 +8°C° 0.2 mm 4 m/s 743 mmHg 66%
    14:00 +8°C° 0.2 mm 4 m/s 743 mmHg 70%
    15:00 +7°C° 0.2 mm 5 m/s 743 mmHg 74%
    16:00 +7°C° 1.3 mm 5 m/s 743 mmHg 79%
    17:00 +6°C° 1.3 mm 5 m/s 744 mmHg 83%
    18:00 +5°C° 1.3 mm 5 m/s 744 mmHg 88%
    19:00 +5°C° 0.7 mm 5 m/s 744 mmHg 89%
    20:00 +6°C° 0.7 mm 5 m/s 744 mmHg 89%
    21:00 +5°C° 0.7 mm 6 m/s 744 mmHg 90%
    22:00 +5°C° 0.4 mm 6 m/s 744 mmHg 90%
    23:00 +5°C° 0.4 mm 6 m/s 744 mmHg 89%

    Demain, 17 Novembre, Dimanche

    Heure Température Précipitation Vent Pression Humidité
    00:00 +5°C° 0.4 mm 6 m/s 744 mmHg 89%
    01:00 +4°C° 0.2 mm 6 m/s 744 mmHg 89%
    02:00 +4°C° 0.2 mm 6 m/s 744 mmHg 90%
    03:00 +4°C° 0.2 mm 6 m/s 743 mmHg 90%
    04:00 +5°C° 0.1 mm 5 m/s 743 mmHg 91%
    05:00 +5°C° 0.1 mm 5 m/s 743 mmHg 91%
    06:00 +5°C° 0.1 mm 5 m/s 743 mmHg 91%
    07:00 +5°C° 0.1 mm 4 m/s 743 mmHg 90%
    08:00 +6°C° 0.1 mm 4 m/s 743 mmHg 89%
    09:00 +7°C° 0.1 mm 3 m/s 743 mmHg 88%
    10:00 +8°C° 0.1 mm 3 m/s 743 mmHg 85%
    11:00 +9°C° 0.1 mm 3 m/s 743 mmHg 81%
    12:00 +9°C° 0.1 mm 3 m/s 742 mmHg 78%
    13:00 +9°C° 0 mm 2 m/s 742 mmHg 77%
    14:00 +9°C° 0 mm 2 m/s 742 mmHg 77%
    15:00 +10°C° 0 mm 2 m/s 742 mmHg 76%
    16:00 +9°C° 0.1 mm 2 m/s 742 mmHg 80%
    17:00 +9°C° 0.1 mm 1 m/s 742 mmHg 83%
    18:00 +8°C° 0.1 mm 1 m/s 742 mmHg 87%
    19:00 +8°C° 0.1 mm 1 m/s 742 mmHg 87%
    20:00 +8°C° 0.1 mm 1 m/s 743 mmHg 88%
    21:00 +7°C° 0.1 mm 1 m/s 743 mmHg 89%
    22:00 +7°C° 0 mm 1 m/s 743 mmHg 89%
    23:00 +6°C° 0 mm 1 m/s 743 mmHg 90%

    Après-demain, 18 Novembre, Lundi

    Heure Température Précipitation Vent Pression Humidité
    00:00 +6°C° 0 mm 1 m/s 743 mmHg 91%
    01:00 +6°C° 0 mm 1 m/s 744 mmHg 91%
    02:00 +5°C° 0 mm 1 m/s 744 mmHg 91%
    03:00 +5°C° 0 mm 1 m/s 744 mmHg 91%
    04:00 +5°C° 0 mm 1 m/s 744 mmHg 91%
    05:00 +5°C° 0 mm 1 m/s 745 mmHg 90%
    06:00 +5°C° 0 mm 1 m/s 745 mmHg 90%
    07:00 +4°C° 0 mm 2 m/s 746 mmHg 88%
    08:00 +5°C° 0 mm 2 m/s 746 mmHg 86%
    09:00 +4°C° 0 mm 3 m/s 747 mmHg 83%
    10:00 +5°C° 0 mm 3 m/s 747 mmHg 79%
    11:00 +6°C° 0 mm 4 m/s 746 mmHg 76%
    12:00 +7°C° 0 mm 4 m/s 746 mmHg 72%
    13:00 +7°C° 0 mm 4 m/s 746 mmHg 71%
    14:00 +7°C° 0 mm 4 m/s 746 mmHg 71%
    15:00 +7°C° 0 mm 4 m/s 746 mmHg 70%
    16:00 +7°C° 0 mm 3 m/s 746 mmHg 72%
    17:00 +7°C° 0 mm 2 m/s 747 mmHg 74%
    18:00 +6°C° 0 mm 2 m/s 747 mmHg 76%
    19:00 +7°C° 0 mm 1 m/s 747 mmHg 77%
    20:00 +6°C° 0 mm 1 m/s 747 mmHg 79%
    21:00 +6°C° 0 mm 1 m/s 748 mmHg 81%
    22:00 +5°C° 0 mm 1 m/s 748 mmHg 81%
    23:00 +5°C° 0 mm 1 m/s 748 mmHg 81%

    19 Novembre, Mardi

    Heure Température Précipitation Vent Pression Humidité
    00:00 +5°C° 0 mm 1 m/s 748 mmHg 81%
    01:00 +5°C° 0 mm 1 m/s 748 mmHg 82%
    02:00 +4°C° 0 mm 1 m/s 748 mmHg 83%
    03:00 +3°C° 0 mm 0 m/s 748 mmHg 84%
    04:00 +3°C° 0 mm 0 m/s 748 mmHg 85%
    05:00 +3°C° 0 mm 0 m/s 748 mmHg 85%
    06:00 +4°C° 0 mm 1 m/s 748 mmHg 86%
    07:00 +5°C° 0 mm 1 m/s 748 mmHg 83%
    08:00 +6°C° 0 mm 1 m/s 748 mmHg 81%
    09:00 +6°C° 0 mm 1 m/s 748 mmHg 78%
    10:00 +8°C° 0 mm 1 m/s 748 mmHg 74%
    11:00 +8°C° 0 mm 2 m/s 747 mmHg 69%
    12:00 +9°C° 0 mm 2 m/s 747 mmHg 65%
    13:00 +9°C° 0 mm 2 m/s 746 mmHg 65%
    14:00 +9°C° 0 mm 2 m/s 746 mmHg 64%
    15:00 +9°C° 0 mm 2 m/s 746 mmHg 64%
    16:00 +8°C° 0 mm 2 m/s 746 mmHg 68%
    17:00 +7°C° 0 mm 2 m/s 746 mmHg 72%
    18:00 +6°C° 0 mm 2 m/s 746 mmHg 75%
    19:00 +4°C° 0 mm 3 m/s 746 mmHg 76%
    20:00 +4°C° 0 mm 3 m/s 746 mmHg 77%
    21:00 +4°C° 0 mm 3 m/s 746 mmHg 78%
    22:00 +4°C° 0 mm 4 m/s 746 mmHg 79%
    23:00 +4°C° 0 mm 4 m/s 746 mmHg 80%

    20 Novembre, Mercredi

    Heure Température Précipitation Vent Pression Humidité
    00:00 +4°C° 0 mm 4 m/s 746 mmHg 81%
    01:00 +4°C° 0 mm 4 m/s 745 mmHg 82%
    02:00 +4°C° 0 mm 4 m/s 745 mmHg 83%
    03:00 +3°C° 0 mm 5 m/s 744 mmHg 84%
    04:00 +4°C° 0 mm 4 m/s 744 mmHg 84%
    05:00 +4°C° 0 mm 4 m/s 744 mmHg 84%
    06:00 +4°C° 0 mm 4 m/s 743 mmHg 85%
    07:00 +5°C° 0 mm 5 m/s 743 mmHg 82%
    08:00 +5°C° 0 mm 5 m/s 743 mmHg 80%
    09:00 +6°C° 0 mm 5 m/s 743 mmHg 78%
    10:00 +7°C° 0 mm 5 m/s 742 mmHg 75%
    11:00 +8°C° 0 mm 5 m/s 742 mmHg 72%
    12:00 +9°C° 0 mm 5 m/s 741 mmHg 68%
    13:00 +10°C° 0 mm 5 m/s 741 mmHg 69%
    14:00 +11°C° 0 mm 4 m/s 741 mmHg 69%
    15:00 +11°C° 0 mm 4 m/s 740 mmHg 69%
    16:00 +11°C° 0 mm 3 m/s 740 mmHg 72%
    17:00 +10°C° 0 mm 2 m/s 740 mmHg 76%
    18:00 +10°C° 0 mm 2 m/s 740 mmHg 79%
    19:00 +9°C° 0 mm 2 m/s 740 mmHg 81%
    20:00 +9°C° 0 mm 2 m/s 740 mmHg 82%
    21:00 +8°C° 0 mm 2 m/s 740 mmHg 84%
    22:00 +8°C° 0 mm 2 m/s 740 mmHg 85%
    23:00 +7°C° 0 mm 2 m/s 739 mmHg 86%

    21 Novembre, Jeudi

    Heure Température Précipitation Vent Pression Humidité
    00:00 +7°C° 0 mm 2 m/s 739 mmHg 87%
    01:00 +7°C° 0 mm 3 m/s 739 mmHg 87%
    02:00 +5°C° 0 mm 3 m/s 739 mmHg 87%
    03:00 +5°C° 0 mm 3 m/s 738 mmHg 87%
    04:00 +7°C° 0 mm 3 m/s 738 mmHg 86%
    05:00 +7°C° 0 mm 3 m/s 738 mmHg 85%
    06:00 +7°C° 0 mm 3 m/s 738 mmHg 84%
    07:00 +8°C° 0 mm 3 m/s 738 mmHg 81%
    08:00 +8°C° 0 mm 3 m/s 738 mmHg 78%
    09:00 +9°C° 0 mm 2 m/s 739 mmHg 75%
    10:00 +10°C° 0 mm 3 m/s 739 mmHg 71%
    11:00 +12°C° 0 mm 3 m/s 738 mmHg 67%
    12:00 +13°C° 0 mm 3 m/s 738 mmHg 63%
    13:00 +13°C° 0 mm 3 m/s 738 mmHg 65%
    14:00 +13°C° 0 mm 3 m/s 738 mmHg 66%
    15:00 +14°C° 0 mm 2 m/s 738 mmHg 68%
    16:00 +13°C° 0 mm 2 m/s 738 mmHg 71%
    17:00 +11°C° 0 mm 3 m/s 737 mmHg 75%
    18:00 +10°C° 0 mm 3 m/s 737 mmHg 78%
    19:00 +10°C° 0 mm 3 m/s 737 mmHg 79%
    20:00 +10°C° 0 mm 3 m/s 737 mmHg 80%
    21:00 +10°C° 0 mm 3 m/s 737 mmHg 81%
    22:00 +10°C° 0 mm 4 m/s 736 mmHg 80%
    23:00 +10°C° 0 mm 4 m/s 736 mmHg 79%
    Voir plus